sat.trackr.live / text

‹ back to catalog

YAOGAN-35 03C

NORAD 53320 · 2022-088E

PAYLOAD ACTIVE UNKNOWN

§ Identity

Operator
Country
PRC
Launch date
2022-07-29
Launch site
XICLF
Launch vehicle
Mass (kg)
RCS (m²)

External: N2YO · Heavens-Above · Gunter

§ Orbital elements

Epoch: 2026-05-24T20:11:49.229664Z

Period
93.29 min
Inclination
34.9962°
Eccentricity
0.0001650
Mean motion
15.43508276 rev/d
Perigee alt
434.6 km
Apogee alt
436.9 km
Semi-major
6,813.9 km
B*
7.9072e-4
RAAN
303.7248°
Arg perigee
63.9765°
Mean anomaly
296.1126°
Rev number
21,332

§ Raw data

YAOGAN-35 03C1 53320U 22088E   26144.84154201  .00036620  00000+0  79072-3 0  99992 53320  34.9962 303.7248 0001650  63.9765 296.1126 15.43508276213322

JSON: /api/v1/satellites/53320 · /tle

For live sub-satellite position, see the globe view (requires WebGL).

§ Visibility from observer

Set your observer location to see the next 7 days of passes ≥ 10°. The values pass through the URL so the page stays shareable.

No JS? Fill the form by hand. The geolocation button needs JavaScript.